User: anonymous   Login
Location: Unspecified
(57.6483°N, 3.3184°W)
Time: 18:12:30
(UTC+01:00)
Language:

VELOX 1 - Orbit

View from above orbital plane
View from above orbital plane
View from above satellite
View from above satellite

Ground track
Ground track

The orbit data is extracted from the following two-line orbital elements,

1 40057U 14034E   21134.21401588  .00000336  00000-0  54134-4 0  9991
2 40057  98.3229 287.1996 0011621 160.4931 199.6714 14.78154104370482
Epoch (UTC): 14 May 2021 05:08:10
Eccentricity: 0.0011621
inclination: 98.3229°
perigee height: 627 km
apogee height: 643 km
right ascension of ascending node: 287.1996°
argument of perigee: 160.4931°
revolutions per day: 14.78154104
mean anomaly at epoch: 199.6714°
orbit number at epoch: 37048

The dashed part of the orbit path shows where the satellite is in the earth's shadow,  

DLR